Location: Newark
(34.9500°N, 139.9667°E)
Time: 18:16:41
(UTC+00:00)

Vanguard 2 - All Passes

Search period start: 15 December 2019 00:00
Search period end: 25 December 2019 00:00
Orbit: 553 x 2938 km, 32.9° (Epoch: 14 December)

Date Brightness Start Highest point End Pass type
(mag) Time Alt. Az. Time Alt. Az. Time Alt. Az.
15 Dec - 12:50:02 10° SSW 12:59:26 39° SE 13:13:17 10° E night (unlit)
15 Dec - 14:57:08 10° WSW 15:09:51 73° SSE 15:27:38 10° E visible
15 Dec - 17:06:59 10° W 17:22:47 83° S 17:40:41 10° E visible
15 Dec - 19:18:33 10° W 19:35:56 66° SSW 19:51:36 10° SE visible
15 Dec - 21:32:22 10° W 21:46:59 34° SW 21:58:45 10° SSE daylight
16 Dec - 11:04:35 10° SSE 11:08:59 14° SE 11:14:16 10° ESE night (unlit)
16 Dec - 13:07:12 10° SW 13:16:59 48° SSE 13:31:52 10° E night (unlit)
16 Dec - 15:15:01 10° WSW 15:27:58 79° SSE 15:45:57 10° E visible
16 Dec - 17:25:07 10° W 17:41:05 81° S 17:58:51 10° ESE visible
16 Dec - 19:36:50 10° W 19:53:53 58° SSW 20:09:09 10° SE visible
16 Dec - 21:51:37 10° W 22:04:24 26° SW 22:15:03 10° S daylight
17 Dec - 11:19:56 10° S 11:26:10 21° SE 11:34:35 10° E visible
17 Dec - 13:24:37 10° SW 13:34:41 58° SSE 13:50:20 10° E night (unlit)
17 Dec - 15:32:58 10° W 15:46:11 82° S 16:04:17 10° E visible
17 Dec - 17:43:14 10° W 17:59:19 77° SSW 18:16:55 10° ESE visible
17 Dec - 19:55:12 10° W 20:11:43 49° SSW 20:26:30 10° SE visible
17 Dec - 22:11:41 10° W 22:21:46 19° SW 22:30:32 10° S daylight
18 Dec - 11:36:20 10° SSW 11:43:26 29° SE 11:53:51 10° E visible
18 Dec - 13:42:13 10° WSW 13:52:32 67° SSE 14:08:42 10° E visible
18 Dec - 15:50:59 10° W 16:04:26 83° S 16:22:36 10° E visible
18 Dec - 18:01:23 10° W 18:17:29 70° SSW 18:34:51 10° ESE visible
18 Dec - 20:13:45 10° W 20:29:25 40° SW 20:43:32 10° SSE visible
18 Dec - 22:33:54 10° WSW 22:39:07 12° SW 22:43:59 10° SSW daylight
19 Dec - 11:53:14 10° SSW 12:00:50 38° SE 12:12:38 10° E visible
19 Dec - 13:59:59 10° WSW 14:10:31 74° SSE 14:27:04 10° E visible
19 Dec - 16:09:02 10° W 16:22:42 82° S 16:40:52 10° E visible
19 Dec - 18:19:33 10° W 18:35:33 63° SSW 18:52:34 10° SE visible
19 Dec - 20:32:35 10° W 20:47:02 32° SW 21:00:10 10° SSE visible
20 Dec - 10:08:23 10° SSE 10:10:57 12° SE 10:13:53 10° ESE visible
20 Dec - 12:10:28 10° SW 12:18:23 47° SSE 12:31:12 10° E night (unlit)
20 Dec - 14:17:51 10° WSW 14:28:36 79° S 14:45:26 10° E visible
20 Dec - 16:27:05 10° W 16:40:57 79° S 16:59:04 10° ESE visible
20 Dec - 18:37:47 10° W 18:53:32 55° SSW 19:10:06 10° SE visible
20 Dec - 20:51:56 10° W 21:04:34 25° SW 21:16:15 10° S visible
21 Dec - 10:23:27 10° S 10:28:10 18° SE 10:34:26 10° E visible
21 Dec - 12:27:56 10° SW 12:36:05 58° SSE 12:49:37 10° E night (unlit)
21 Dec - 14:35:47 10° W 14:46:46 82° S 15:03:47 10° E visible
21 Dec - 16:45:09 10° W 16:59:08 74° SSW 17:17:09 10° ESE visible
21 Dec - 18:56:09 10° W 19:11:24 46° SSW 19:27:20 10° SE visible
21 Dec - 21:12:14 10° W 21:22:05 18° SW 21:31:23 10° SSW visible
22 Dec - 10:39:51 10° SSW 10:45:28 26° SE 10:53:38 10° E visible
22 Dec - 12:45:35 10° WSW 12:53:55 67° SSE 13:07:59 10° E night (unlit)
22 Dec - 14:53:44 10° W 15:04:57 82° S 15:22:08 10° E visible
22 Dec - 17:03:13 10° W 17:17:16 67° SSW 17:35:02 10° ESE visible
22 Dec - 19:14:43 10° W 19:29:12 38° SW 19:44:13 10° SSE visible
22 Dec - 21:35:23 10° WSW 21:39:38 11° SW 21:43:47 10° SW daylight
23 Dec - 10:56:50 10° SSW 11:02:53 35° SE 11:12:21 10° E visible
23 Dec - 13:03:21 10° WSW 13:11:53 75° SSE 13:26:21 10° E night (unlit)
23 Dec - 15:11:43 10° W 15:23:09 80° S 15:40:26 10° ESE visible
23 Dec - 17:21:21 10° W 17:35:20 59° SSW 17:52:44 10° SE visible
23 Dec - 19:33:38 10° W 19:46:56 30° SW 20:00:39 10° SSE visible
24 Dec - 11:14:07 10° SW 11:20:27 46° SSE 11:30:50 10° E visible
24 Dec - 13:21:12 10° WSW 13:29:56 79° S 13:44:42 10° E night (unlit)
24 Dec - 15:29:43 10° W 15:41:19 76° SSW 15:58:37 10° ESE visible
24 Dec - 17:39:34 10° W 17:53:20 50° SSW 18:10:09 10° SE visible
24 Dec - 19:53:09 10° W 20:04:38 22° SW 20:16:25 10° S visible
